Date String (YYYY-MM-DD hh:mm:ss) UTC,Instrument flags,Ambient pressure (hPa),Sample flow (lpm),Bypass flow (lpm),Sample temperature (°C),Ambient temperature (°C),ASC tube jacket temperature (°C),LED temperature (°C),Box temperature (°C),Sample RH (%),Span deviation,Mass concentration (μg/m³),Mass concentration (μg/m³),Mass concentration (μg/m³)
DateTimeUTC,F1_M11,P_M11,Q1_M11,Q2_M11,T1_M11,T2_M11,T3_M11,T4_M11,T5_M11,U1_M11,ZSPAN_M11,X0_M11,X2_M11,X1_M11
2022-03-27 02:00:00,,0823.0,4.99,0.00,29.9,29.0,00.0,38.7,31.7,10.3,0000.0,0014.89,0004.06,0002.17
2022-03-27 02:01:00,,0823.0,4.99,0.00,29.9,29.0,00.0,38.7,31.7,10.4,0000.0,0015.91,0004.14,0002.25
2022-03-27 02:02:00,,0823.0,5.01,0.00,29.9,29.0,00.0,38.8,31.7,10.5,0000.0,0016.38,0004.24,0002.37
2022-03-27 02:03:00,,0823.0,5.00,0.00,30.0,28.8,00.0,38.8,31.7,10.5,0000.0,0017.16,0004.37,0002.48
2022-03-27 02:04:00,,0822.9,5.00,0.00,29.9,26.8,00.0,38.8,31.2,10.6,0000.0,0017.72,0004.53,0002.60
2022-03-27 02:05:00,,0822.9,5.00,0.00,29.7,25.7,00.0,38.8,31.0,10.8,0000.0,0017.73,0004.69,0002.75
2022-03-27 02:06:00,,0822.9,5.00,0.00,29.6,25.9,00.0,38.7,31.0,10.8,0000.0,0018.44,0004.77,0002.89
2022-03-27 02:07:00,,0823.0,5.01,0.00,29.6,26.3,00.0,38.6,31.1,10.9,0000.0,0018.44,0004.81,0003.03
2022-03-27 02:08:00,,0823.0,4.99,0.00,29.6,26.8,00.0,38.6,31.2,10.9,0000.0,0017.90,0004.86,0003.10
2022-03-27 02:09:00,,0823.0,5.00,0.00,29.5,27.1,00.0,38.6,31.2,10.9,0000.0,0015.97,0004.85,0003.15
2022-03-27 02:10:00,,0823.0,5.01,0.00,29.5,27.4,00.0,38.6,31.2,11.0,0000.0,0016.23,0004.96,0003.21
2022-03-27 02:11:00,,0822.9,5.01,0.00,29.5,27.7,00.0,38.6,31.2,11.0,0000.0,0017.05,0005.04,0003.28
2022-03-27 02:12:00,,0823.0,4.99,0.00,29.6,27.9,00.0,38.6,31.3,11.0,0000.0,0018.01,0005.16,0003.35
2022-03-27 02:13:00,,0823.0,5.02,0.00,29.6,28.0,00.0,38.5,31.3,11.1,0000.0,0018.89,0005.25,0003.40
2022-03-27 02:14:00,,0823.0,5.00,0.00,29.6,28.2,00.0,38.5,31.3,11.1,0000.0,0018.69,0005.31,0003.44
2022-03-27 02:15:00,,0823.0,5.01,0.00,29.6,28.3,00.0,38.6,31.4,11.0,0000.0,0019.60,0005.33,0003.47
2022-03-27 02:16:00,,0823.1,4.99,0.00,29.6,28.4,00.0,38.6,31.4,11.1,0000.0,0021.49,0005.35,0003.49
2022-03-27 02:17:00,,0823.1,5.01,0.00,29.7,28.6,00.0,38.6,31.5,11.3,0000.0,0022.85,0005.40,0003.49
2022-03-27 02:18:00,,0823.1,4.99,0.00,29.7,28.7,00.0,38.6,31.5,11.3,0000.0,0023.17,0005.50,0003.52
2022-03-27 02:19:00,,0823.1,4.98,0.00,29.7,28.7,00.0,38.6,31.5,11.3,0000.0,0024.42,0005.47,0003.53
2022-03-27 02:20:00,,0823.1,5.01,0.00,29.8,28.8,00.0,38.6,31.5,11.2,0000.0,0025.23,0005.55,0003.54
2022-03-27 02:21:00,,0823.1,5.01,0.00,29.8,28.9,00.0,38.6,31.6,11.2,0000.0,0024.89,0005.57,0003.54
2022-03-27 02:22:00,,0823.2,5.00,0.00,29.8,28.9,00.0,38.6,31.6,11.2,0000.0,0024.65,0005.63,0003.54
2022-03-27 02:23:00,,0823.2,4.99,0.00,29.9,29.0,00.0,38.7,31.7,11.2,0000.0,0024.24,0005.56,0003.54
2022-03-27 02:24:00,,0823.2,5.01,0.00,29.9,29.0,00.0,38.7,31.7,11.2,0000.0,0023.49,0005.63,0003.54
2022-03-27 02:25:00,,0823.2,4.99,0.00,29.9,29.0,00.0,38.7,31.7,11.1,0000.0,0023.37,0005.61,0003.54
2022-03-27 02:26:00,,0823.2,5.01,0.00,29.9,29.1,00.0,38.7,31.7,11.0,0000.0,0022.72,0005.61,0003.55
2022-03-27 02:27:00,,0823.2,5.01,0.00,30.0,29.1,00.0,38.8,31.8,11.0,0000.0,0021.57,0005.68,0003.58
2022-03-27 02:28:00,,0823.2,4.99,0.00,30.0,29.2,00.0,38.8,31.8,10.9,0000.0,0020.08,0005.63,0003.60
2022-03-27 02:29:00,,0823.2,4.99,0.00,30.0,29.2,00.0,38.8,31.8,10.8,0000.0,0019.99,0005.58,0003.60
2022-03-27 02:30:00,,0823.2,5.01,0.00,30.0,28.5,00.0,38.8,31.7,10.7,0000.0,0018.87,0005.46,0003.56
2022-03-27 02:31:00,,0823.2,5.00,0.00,29.9,26.2,00.0,38.8,31.3,10.8,0000.0,0017.78,0005.44,0003.52
2022-03-27 02:32:00,,0823.2,5.00,0.00,29.8,25.8,00.0,38.8,31.1,10.9,0000.0,0017.24,0005.38,0003.48
2022-03-27 02:33:00,,0823.2,4.98,0.00,29.6,26.0,00.0,38.7,31.1,10.9,0000.0,0016.55,0005.32,0003.44
2022-03-27 02:34:00,,0823.2,5.00,0.00,29.6,26.5,00.0,38.7,31.2,10.9,0000.0,0016.08,0005.30,0003.39
2022-03-27 02:35:00,,0823.2,5.01,0.00,29.6,26.9,00.0,38.6,31.2,10.9,0000.0,0016.12,0005.22,0003.34
2022-03-27 02:36:00,,0823.3,4.98,0.00,29.6,27.3,00.0,38.6,31.3,11.0,0000.0,0016.47,0005.17,0003.29
2022-03-27 02:37:00,,0823.3,5.02,0.00,29.6,27.6,00.0,38.6,31.3,11.0,0000.0,0016.92,0005.15,0003.24
2022-03-27 02:38:00,,0823.3,4.99,0.00,29.6,27.9,00.0,38.6,31.3,11.0,0000.0,0016.47,0005.04,0003.18
2022-03-27 02:39:00,,0823.4,5.01,0.00,29.6,28.1,00.0,38.6,31.4,10.9,0001.0,0016.12,0004.99,0003.13
2022-03-27 02:40:00,,0823.4,5.01,0.00,29.7,28.3,00.0,38.6,31.4,10.9,0000.3,0015.84,0005.00,0003.07
2022-03-27 02:41:00,,0823.3,4.98,0.00,29.7,28.4,00.0,38.6,31.4,10.9,0001.3,0015.67,0005.02,0003.07
2022-03-27 02:42:00,,0823.3,5.00,0.00,29.7,28.5,00.0,38.6,31.5,10.9,0002.4,0015.10,0004.95,0003.07
2022-03-27 02:43:00,,0823.4,5.01,0.00,29.7,28.6,00.0,38.6,31.5,10.9,0000.0,0015.37,0004.95,0003.06
2022-03-27 02:44:00,,0823.4,4.98,0.00,29.8,28.7,00.0,38.6,31.5,10.9,0000.0,0015.10,0004.99,0003.08
2022-03-27 02:45:00,,0823.5,5.01,0.00,29.8,28.8,00.0,38.6,31.6,10.9,0000.0,0014.84,0004.99,0003.08
2022-03-27 02:46:00,,0823.5,4.99,0.00,29.8,28.8,00.0,38.7,31.6,10.9,0000.0,0015.23,0004.97,0003.08
2022-03-27 02:47:00,,0823.4,4.98,0.00,29.8,28.8,00.0,38.7,31.6,11.0,0000.0,0015.77,0004.97,0003.07
2022-03-27 02:48:00,,0823.4,5.01,0.00,29.9,28.9,00.0,38.7,31.6,11.0,0000.0,0015.28,0004.89,0003.08
2022-03-27 02:49:00,,0823.4,5.00,0.00,29.9,29.0,00.0,38.7,31.7,11.0,0000.0,0015.33,0004.84,0003.05
2022-03-27 02:50:00,,0823.5,4.99,0.00,29.9,29.0,00.0,38.7,31.7,11.0,0000.0,0015.40,0004.86,0003.04
2022-03-27 02:51:00,,0823.5,5.00,0.00,29.9,29.0,00.0,38.8,31.7,11.0,0000.0,0016.18,0004.89,0003.02
2022-03-27 02:52:00,,0823.6,5.02,0.00,29.9,29.0,00.0,38.8,31.7,11.0,0000.0,0016.48,0004.89,0003.01
2022-03-27 02:53:00,,0823.6,4.99,0.00,30.0,29.0,00.0,38.8,31.7,11.0,0000.0,0016.75,0004.93,0003.02
2022-03-27 02:54:00,,0823.7,5.00,0.00,30.0,29.0,00.0,38.8,31.7,11.0,0000.0,0017.19,0004.95,0003.01
2022-03-27 02:55:00,,0823.6,5.01,0.00,30.0,29.1,00.0,38.8,31.8,11.0,0000.0,0016.97,0004.87,0002.98
2022-03-27 02:56:00,,0823.5,4.99,0.00,30.0,29.1,00.0,38.9,31.8,11.0,0000.0,0017.55,0004.91,0002.97
2022-03-27 02:57:00,,0823.5,5.01,0.00,30.0,29.1,00.0,38.9,31.8,11.0,0000.0,0016.94,0004.90,0002.96
2022-03-27 02:58:00,,0823.4,5.01,0.00,30.1,28.8,00.0,38.9,31.7,11.0,0000.0,0017.03,0004.88,0002.96
2022-03-27 02:59:00,,0823.4,5.01,0.00,29.9,26.5,00.0,38.9,31.3,11.1,0000.0,0016.57,0004.89,0002.96
